Year,Month,Day,Hour,Minute,Value (Times are PST for temperature in C)
2016,08,11,00,00,15.20
2016,08,11,00,01,15.20
2016,08,11,00,02,15.20
2016,08,11,00,03,15.20
2016,08,11,00,04,15.20
2016,08,11,00,05,15.20
2016,08,11,00,06,15.20
2016,08,11,00,07,15.20
2016,08,11,00,08,15.10
2016,08,11,00,09,15.10
2016,08,11,00,10,15.10
2016,08,11,00,11,15.00
2016,08,11,00,12,15.00
2016,08,11,00,13,15.00
2016,08,11,00,14,14.90
2016,08,11,00,15,14.90
2016,08,11,00,16,14.90
2016,08,11,00,17,14.90
2016,08,11,00,18,14.90
2016,08,11,00,19,14.90
2016,08,11,00,20,14.90
2016,08,11,00,21,14.90
2016,08,11,00,22,14.80
2016,08,11,00,23,14.80
2016,08,11,00,24,14.80
2016,08,11,00,25,14.80
2016,08,11,00,26,14.80
2016,08,11,00,27,14.80
2016,08,11,00,28,14.80
2016,08,11,00,29,14.80
2016,08,11,00,30,14.80
2016,08,11,00,31,14.80
2016,08,11,00,32,14.80
2016,08,11,00,33,14.80
2016,08,11,00,34,14.80
2016,08,11,00,35,14.70
2016,08,11,00,36,14.70
2016,08,11,00,37,14.70
2016,08,11,00,38,14.70
2016,08,11,00,39,14.70
2016,08,11,00,40,14.70
2016,08,11,00,41,14.70
2016,08,11,00,42,14.70
2016,08,11,00,43,14.70
2016,08,11,00,44,14.70
2016,08,11,00,45,14.70
2016,08,11,00,46,14.70
2016,08,11,00,47,14.70
2016,08,11,00,48,14.70
2016,08,11,00,49,14.70
2016,08,11,00,50,14.70
2016,08,11,00,51,14.70
2016,08,11,00,52,14.70
2016,08,11,00,53,14.70
2016,08,11,00,54,14.60
2016,08,11,00,55,14.60
2016,08,11,00,56,14.60
2016,08,11,00,57,14.60
2016,08,11,00,58,14.60
2016,08,11,00,59,14.60
2016,08,11,01,00,14.60
2016,08,11,01,01,14.50
2016,08,11,01,02,14.50
2016,08,11,01,03,14.40
2016,08,11,01,04,14.40
2016,08,11,01,05,14.30
2016,08,11,01,06,14.30
2016,08,11,01,07,14.30
2016,08,11,01,08,14.20
2016,08,11,01,09,14.20
2016,08,11,01,10,14.20
2016,08,11,01,11,14.10
2016,08,11,01,12,14.10
2016,08,11,01,13,14.10
2016,08,11,01,14,14.10
2016,08,11,01,15,14.00
2016,08,11,01,16,14.00
2016,08,11,01,17,14.00
2016,08,11,01,18,14.00
2016,08,11,01,19,14.10
2016,08,11,01,20,14.10
2016,08,11,01,21,14.10
2016,08,11,01,22,14.10
2016,08,11,01,23,14.00
2016,08,11,01,24,14.00
2016,08,11,01,25,14.00
2016,08,11,01,26,13.90
2016,08,11,01,27,13.90
2016,08,11,01,28,13.90
2016,08,11,01,29,13.90
2016,08,11,01,30,13.90
2016,08,11,01,31,14.00
2016,08,11,01,32,14.00
2016,08,11,01,33,14.00
2016,08,11,01,34,14.10
2016,08,11,01,35,14.10
2016,08,11,01,36,14.10
2016,08,11,01,37,14.10
2016,08,11,01,38,14.10
2016,08,11,01,39,14.10
2016,08,11,01,40,14.10
2016,08,11,01,41,14.10
2016,08,11,01,42,14.10
2016,08,11,01,43,14.10
2016,08,11,01,44,14.10
2016,08,11,01,45,14.00
2016,08,11,01,46,13.90
2016,08,11,01,47,13.90
2016,08,11,01,48,13.90
2016,08,11,01,49,13.90
2016,08,11,01,50,13.90
2016,08,11,01,51,13.90
2016,08,11,01,52,13.90
2016,08,11,01,53,13.90
2016,08,11,01,54,13.80
2016,08,11,01,55,13.80
2016,08,11,01,56,13.80
2016,08,11,01,57,13.80
2016,08,11,01,58,13.80
2016,08,11,01,59,13.90
2016,08,11,02,00,13.80
2016,08,11,02,01,13.80
2016,08,11,02,02,13.80
2016,08,11,02,03,13.80
2016,08,11,02,04,13.80
2016,08,11,02,05,13.80
2016,08,11,02,06,13.80
2016,08,11,02,07,13.80
2016,08,11,02,08,13.80
2016,08,11,02,09,13.80
2016,08,11,02,10,13.70
2016,08,11,02,11,13.70
2016,08,11,02,12,13.70
2016,08,11,02,13,13.70
2016,08,11,02,14,13.70
2016,08,11,02,15,13.70
2016,08,11,02,16,13.70
2016,08,11,02,17,13.60
2016,08,11,02,18,13.60
2016,08,11,02,19,13.60
2016,08,11,02,20,13.60
2016,08,11,02,21,13.60
2016,08,11,02,22,13.60
2016,08,11,02,23,13.60
2016,08,11,02,24,13.60
2016,08,11,02,25,13.60
2016,08,11,02,26,13.50
2016,08,11,02,27,13.50
2016,08,11,02,28,13.40
2016,08,11,02,29,13.40
2016,08,11,02,30,13.40
2016,08,11,02,31,13.40
2016,08,11,02,32,13.40
2016,08,11,02,33,13.40
2016,08,11,02,34,13.50
2016,08,11,02,35,13.50
2016,08,11,02,36,13.50
2016,08,11,02,37,13.60
2016,08,11,02,38,13.60
2016,08,11,02,39,13.60
2016,08,11,02,40,13.60
2016,08,11,02,41,13.60
2016,08,11,02,42,13.60
2016,08,11,02,43,13.60
2016,08,11,02,44,13.60
2016,08,11,02,45,13.60
2016,08,11,02,46,13.60
2016,08,11,02,47,13.60
2016,08,11,02,48,13.50
2016,08,11,02,49,13.50
2016,08,11,02,50,13.50
2016,08,11,02,51,13.60
2016,08,11,02,52,13.50
2016,08,11,02,53,13.50
2016,08,11,02,54,13.50
2016,08,11,02,55,13.40
2016,08,11,02,56,13.40
2016,08,11,02,57,13.40
2016,08,11,02,58,13.30
2016,08,11,02,59,13.30
2016,08,11,03,00,13.30
2016,08,11,03,01,13.20
2016,08,11,03,02,13.20
2016,08,11,03,03,13.10
2016,08,11,03,04,13.10
2016,08,11,03,05,13.10
2016,08,11,03,06,13.10
2016,08,11,03,07,13.10
2016,08,11,03,08,13.10
2016,08,11,03,09,13.10
2016,08,11,03,10,13.10
2016,08,11,03,11,13.00
2016,08,11,03,12,13.00
2016,08,11,03,13,13.00
2016,08,11,03,14,12.90
2016,08,11,03,15,12.90
2016,08,11,03,16,12.90
2016,08,11,03,17,12.90
2016,08,11,03,18,12.80
2016,08,11,03,19,12.80
2016,08,11,03,20,12.80
2016,08,11,03,21,12.80
2016,08,11,03,22,12.70
2016,08,11,03,23,12.70
2016,08,11,03,24,12.60
2016,08,11,03,25,12.60
2016,08,11,03,26,12.50
2016,08,11,03,27,12.50
2016,08,11,03,28,12.50
2016,08,11,03,29,12.40
2016,08,11,03,30,12.40
2016,08,11,03,31,12.40
2016,08,11,03,32,12.40
2016,08,11,03,33,12.30
2016,08,11,03,34,12.30
2016,08,11,03,35,12.30
2016,08,11,03,36,12.40
2016,08,11,03,37,12.40
2016,08,11,03,38,12.40
2016,08,11,03,39,12.40
2016,08,11,03,40,12.50
2016,08,11,03,41,12.50
2016,08,11,03,42,12.40
2016,08,11,03,43,12.50
2016,08,11,03,44,12.50
2016,08,11,03,45,12.50
2016,08,11,03,46,12.50
2016,08,11,03,47,12.60
2016,08,11,03,48,12.60
2016,08,11,03,49,12.60
2016,08,11,03,50,12.60
2016,08,11,03,51,12.60
2016,08,11,03,52,12.60
2016,08,11,03,53,12.60
2016,08,11,03,54,12.60
2016,08,11,03,55,12.60
2016,08,11,03,56,12.60
2016,08,11,03,57,12.60
2016,08,11,03,58,12.60
2016,08,11,03,59,12.60
2016,08,11,04,00,12.60
2016,08,11,04,01,12.60
2016,08,11,04,02,12.60
2016,08,11,04,03,12.60
2016,08,11,04,04,12.70
2016,08,11,04,05,12.70
2016,08,11,04,06,12.70
2016,08,11,04,07,12.70
2016,08,11,04,08,12.70
2016,08,11,04,09,12.60
2016,08,11,04,10,12.60
2016,08,11,04,11,12.60
2016,08,11,04,12,12.60
2016,08,11,04,13,12.60
2016,08,11,04,14,12.50
2016,08,11,04,15,12.50
2016,08,11,04,16,12.40
2016,08,11,04,17,12.40
2016,08,11,04,18,12.40
2016,08,11,04,19,12.30
2016,08,11,04,20,12.30
2016,08,11,04,21,12.30
2016,08,11,04,22,12.30
2016,08,11,04,23,12.30
2016,08,11,04,24,12.30
2016,08,11,04,25,12.30
2016,08,11,04,26,12.30
2016,08,11,04,27,12.30
2016,08,11,04,28,12.30
2016,08,11,04,29,12.30
2016,08,11,04,30,12.30
2016,08,11,04,31,12.30
2016,08,11,04,32,12.30
2016,08,11,04,33,12.30
2016,08,11,04,34,12.30
2016,08,11,04,35,12.20
2016,08,11,04,36,12.20
2016,08,11,04,37,12.20
2016,08,11,04,38,12.20
2016,08,11,04,39,12.10
2016,08,11,04,40,12.10
2016,08,11,04,41,12.10
2016,08,11,04,42,12.00
2016,08,11,04,43,12.00
2016,08,11,04,44,12.00
2016,08,11,04,45,12.00
2016,08,11,04,46,12.00
2016,08,11,04,47,12.00
2016,08,11,04,48,12.00
2016,08,11,04,49,12.10
2016,08,11,04,50,12.10
2016,08,11,04,51,12.10
2016,08,11,04,52,12.10
2016,08,11,04,53,12.10
2016,08,11,04,54,12.10
2016,08,11,04,55,12.10
2016,08,11,04,56,12.10
2016,08,11,04,57,12.10
2016,08,11,04,58,12.10
2016,08,11,04,59,12.10
2016,08,11,05,00,12.10
2016,08,11,05,01,12.10
2016,08,11,05,02,12.00
2016,08,11,05,03,12.00
2016,08,11,05,04,11.90
2016,08,11,05,05,11.90
2016,08,11,05,06,11.90
2016,08,11,05,07,11.80
2016,08,11,05,08,11.80
2016,08,11,05,09,11.80
2016,08,11,05,10,11.80
2016,08,11,05,11,11.80
2016,08,11,05,12,11.80
2016,08,11,05,13,11.70
2016,08,11,05,14,11.70
2016,08,11,05,15,11.70
2016,08,11,05,16,11.70
2016,08,11,05,17,11.70
2016,08,11,05,18,11.60
2016,08,11,05,19,11.60
2016,08,11,05,20,11.60
2016,08,11,05,21,11.60
2016,08,11,05,22,11.60
2016,08,11,05,23,11.60
2016,08,11,05,24,11.60
2016,08,11,05,25,11.60
2016,08,11,05,26,11.60
2016,08,11,05,27,11.60
2016,08,11,05,28,11.50
2016,08,11,05,29,11.50
2016,08,11,05,30,11.50
2016,08,11,05,31,11.50
2016,08,11,05,32,11.60
2016,08,11,05,33,11.60
2016,08,11,05,34,11.60
2016,08,11,05,35,11.60
2016,08,11,05,36,11.60
2016,08,11,05,37,11.60
2016,08,11,05,38,11.60
2016,08,11,05,39,11.60
2016,08,11,05,40,11.70
2016,08,11,05,41,11.70
2016,08,11,05,42,11.80
2016,08,11,05,43,11.80
2016,08,11,05,44,11.80
2016,08,11,05,45,11.80
2016,08,11,05,46,11.80
2016,08,11,05,47,11.80
2016,08,11,05,48,11.80
2016,08,11,05,49,11.80
2016,08,11,05,50,11.70
2016,08,11,05,51,11.70
2016,08,11,05,52,11.70
2016,08,11,05,53,11.70
2016,08,11,05,54,11.70
2016,08,11,05,55,11.70
2016,08,11,05,56,11.70
2016,08,11,05,57,11.70
2016,08,11,05,58,11.70
2016,08,11,05,59,11.70
2016,08,11,06,00,11.70
2016,08,11,06,01,11.70
2016,08,11,06,02,11.80
2016,08,11,06,03,11.80
2016,08,11,06,04,11.80
2016,08,11,06,05,11.80
2016,08,11,06,06,11.80
2016,08,11,06,07,11.80
2016,08,11,06,08,11.80
2016,08,11,06,09,11.80
2016,08,11,06,10,11.80
2016,08,11,06,11,11.80
2016,08,11,06,12,11.80
2016,08,11,06,13,11.80
2016,08,11,06,14,11.70
2016,08,11,06,15,11.70
2016,08,11,06,16,11.70
2016,08,11,06,17,11.70
2016,08,11,06,18,11.60
2016,08,11,06,19,11.60
2016,08,11,06,20,11.60
2016,08,11,06,21,11.60
2016,08,11,06,22,11.50
2016,08,11,06,23,11.50
2016,08,11,06,24,11.50
2016,08,11,06,25,11.40
2016,08,11,06,26,11.40
2016,08,11,06,27,11.40
2016,08,11,06,28,11.40
2016,08,11,06,29,11.40
2016,08,11,06,30,11.40
2016,08,11,06,31,11.40
2016,08,11,06,32,11.40
2016,08,11,06,33,11.40
2016,08,11,06,34,11.40
2016,08,11,06,35,11.40
2016,08,11,06,36,11.40
2016,08,11,06,37,11.40
2016,08,11,06,38,11.40
2016,08,11,06,39,11.40
2016,08,11,06,40,11.40
2016,08,11,06,41,11.40
2016,08,11,06,42,11.40
2016,08,11,06,43,11.40
2016,08,11,06,44,11.50
2016,08,11,06,45,11.50
2016,08,11,06,46,11.50
2016,08,11,06,47,11.50
2016,08,11,06,48,11.50
2016,08,11,06,49,11.50
2016,08,11,06,50,11.50
2016,08,11,06,51,11.50
2016,08,11,06,52,11.60
2016,08,11,06,53,11.60
2016,08,11,06,54,11.60
2016,08,11,06,55,11.60
2016,08,11,06,56,11.70
2016,08,11,06,57,11.70
2016,08,11,06,58,11.70
2016,08,11,06,59,11.80
2016,08,11,07,00,11.80
2016,08,11,07,01,11.80
2016,08,11,07,02,11.90
2016,08,11,07,03,12.00
2016,08,11,07,04,12.00
2016,08,11,07,05,12.10
2016,08,11,07,06,12.10
2016,08,11,07,07,12.10
2016,08,11,07,08,12.20
2016,08,11,07,09,12.20
2016,08,11,07,10,12.20
2016,08,11,07,11,12.20
2016,08,11,07,12,12.30
2016,08,11,07,13,12.30
2016,08,11,07,14,12.40
2016,08,11,07,15,12.50
2016,08,11,07,16,12.60
2016,08,11,07,17,12.70
2016,08,11,07,18,12.80
2016,08,11,07,19,12.90
2016,08,11,07,20,13.00
2016,08,11,07,21,13.00
2016,08,11,07,22,13.00
2016,08,11,07,23,13.10
2016,08,11,07,24,13.10
2016,08,11,07,25,13.10
2016,08,11,07,26,13.10
2016,08,11,07,27,13.20
2016,08,11,07,28,13.20
2016,08,11,07,29,13.20
2016,08,11,07,30,13.30
2016,08,11,07,31,13.30
2016,08,11,07,32,13.40
2016,08,11,07,33,13.50
2016,08,11,07,34,13.60
2016,08,11,07,35,13.70
2016,08,11,07,36,13.80
2016,08,11,07,37,13.90
2016,08,11,07,38,14.00
2016,08,11,07,39,14.10
2016,08,11,07,40,14.20
2016,08,11,07,41,14.20
2016,08,11,07,42,14.30
2016,08,11,07,43,14.30
2016,08,11,07,44,14.30
2016,08,11,07,45,14.30
2016,08,11,07,46,14.40
2016,08,11,07,47,14.40
2016,08,11,07,48,14.50
2016,08,11,07,49,14.50
2016,08,11,07,50,14.60
2016,08,11,07,51,14.70
2016,08,11,07,52,14.70
2016,08,11,07,53,14.80
2016,08,11,07,54,14.90
2016,08,11,07,55,15.00
2016,08,11,07,56,15.00
2016,08,11,07,57,15.10
2016,08,11,07,58,15.20
2016,08,11,07,59,15.20
2016,08,11,08,00,15.30
2016,08,11,08,01,15.30
2016,08,11,08,02,15.40
2016,08,11,08,03,15.50
2016,08,11,08,04,15.50
2016,08,11,08,05,15.60
2016,08,11,08,06,15.70
2016,08,11,08,07,15.80
2016,08,11,08,08,15.80
2016,08,11,08,09,15.90
2016,08,11,08,10,16.00
2016,08,11,08,11,16.00
2016,08,11,08,12,16.20
2016,08,11,08,13,16.20
2016,08,11,08,14,16.30
2016,08,11,08,15,16.40
2016,08,11,08,16,16.40
2016,08,11,08,17,16.40
2016,08,11,08,18,16.40
2016,08,11,08,19,16.50
2016,08,11,08,20,16.60
2016,08,11,08,21,16.60
2016,08,11,08,22,16.60
2016,08,11,08,23,16.60
2016,08,11,08,24,16.70
2016,08,11,08,25,16.80
2016,08,11,08,26,16.80
2016,08,11,08,27,16.90
2016,08,11,08,28,16.90
2016,08,11,08,29,16.90
2016,08,11,08,30,16.90
2016,08,11,08,31,17.00
2016,08,11,08,32,17.00
2016,08,11,08,33,17.10
2016,08,11,08,34,17.10
2016,08,11,08,35,17.10
2016,08,11,08,36,17.10
2016,08,11,08,37,17.20
2016,08,11,08,38,17.20
2016,08,11,08,39,17.30
2016,08,11,08,40,17.30
2016,08,11,08,41,17.40
2016,08,11,08,42,17.40
2016,08,11,08,43,17.50
2016,08,11,08,44,17.50
2016,08,11,08,45,17.60
2016,08,11,08,46,17.70
2016,08,11,08,47,17.80
2016,08,11,08,48,17.90
2016,08,11,08,49,18.00
2016,08,11,08,50,18.10
2016,08,11,08,51,18.20
2016,08,11,08,52,18.20
2016,08,11,08,53,18.20
2016,08,11,08,54,18.30
2016,08,11,08,55,18.30
2016,08,11,08,56,18.40
2016,08,11,08,57,18.40
2016,08,11,08,58,18.50
2016,08,11,08,59,18.60
2016,08,11,09,00,18.60
2016,08,11,09,01,18.70
2016,08,11,09,02,18.70
2016,08,11,09,03,18.80
2016,08,11,09,04,18.80
2016,08,11,09,05,18.90
2016,08,11,09,06,19.00
2016,08,11,09,07,19.00
2016,08,11,09,08,19.10
2016,08,11,09,09,19.10
2016,08,11,09,10,19.10
2016,08,11,09,11,19.20
2016,08,11,09,12,19.30
2016,08,11,09,13,19.30
2016,08,11,09,14,19.40
2016,08,11,09,15,19.40
2016,08,11,09,16,19.50
2016,08,11,09,17,19.50
2016,08,11,09,18,19.50
2016,08,11,09,19,19.60
2016,08,11,09,20,19.60
2016,08,11,09,21,19.60
2016,08,11,09,22,19.70
2016,08,11,09,23,19.70
2016,08,11,09,24,19.70
2016,08,11,09,25,19.80
2016,08,11,09,26,19.80
2016,08,11,09,27,19.80
2016,08,11,09,28,19.90
2016,08,11,09,29,19.90
2016,08,11,09,30,20.00
2016,08,11,09,31,20.00
2016,08,11,09,32,20.10
2016,08,11,09,33,20.20
2016,08,11,09,34,20.30
2016,08,11,09,35,20.30
2016,08,11,09,36,20.40
2016,08,11,09,37,20.40
2016,08,11,09,38,20.50
2016,08,11,09,39,20.60
2016,08,11,09,40,20.70
2016,08,11,09,41,20.70
2016,08,11,09,42,20.80
2016,08,11,09,43,20.80
2016,08,11,09,44,20.90
2016,08,11,09,45,20.90
2016,08,11,09,46,20.90
2016,08,11,09,47,20.90
2016,08,11,09,48,20.90
2016,08,11,09,49,20.90
2016,08,11,09,50,21.00
2016,08,11,09,51,21.10
2016,08,11,09,52,21.20
2016,08,11,09,53,21.30
2016,08,11,09,54,21.40
2016,08,11,09,55,21.50
2016,08,11,09,56,21.50
2016,08,11,09,57,21.60
2016,08,11,09,58,21.70
2016,08,11,09,59,21.80
2016,08,11,10,00,21.80
2016,08,11,10,01,21.90
2016,08,11,10,02,21.90
2016,08,11,10,03,22.00
2016,08,11,10,04,22.00
2016,08,11,10,05,22.00
2016,08,11,10,06,22.10
2016,08,11,10,07,22.20
2016,08,11,10,08,22.20
2016,08,11,10,09,22.20
2016,08,11,10,10,22.20
2016,08,11,10,11,22.20
2016,08,11,10,12,22.30
2016,08,11,10,13,22.40
2016,08,11,10,14,22.50
2016,08,11,10,15,22.50
2016,08,11,10,16,22.60
2016,08,11,10,17,22.60
2016,08,11,10,18,22.70
2016,08,11,10,19,22.70
2016,08,11,10,20,22.70
2016,08,11,10,21,22.70
2016,08,11,10,22,22.70
2016,08,11,10,23,22.70
2016,08,11,10,24,22.70
2016,08,11,10,25,22.80
2016,08,11,10,26,22.80
2016,08,11,10,27,22.80
2016,08,11,10,28,22.90
2016,08,11,10,29,23.00
2016,08,11,10,30,23.10
2016,08,11,10,31,23.20
2016,08,11,10,32,23.30
2016,08,11,10,33,23.40
2016,08,11,10,34,23.40
2016,08,11,10,35,23.40
2016,08,11,10,36,23.40
2016,08,11,10,37,23.40
2016,08,11,10,38,23.40
2016,08,11,10,39,23.40
2016,08,11,10,40,23.40
2016,08,11,10,41,23.50
2016,08,11,10,42,23.50
2016,08,11,10,43,23.60
2016,08,11,10,44,23.60
2016,08,11,10,45,23.60
2016,08,11,10,46,23.60
2016,08,11,10,47,23.60
2016,08,11,10,48,23.70
2016,08,11,10,49,23.80
2016,08,11,10,50,23.90
2016,08,11,10,51,24.00
2016,08,11,10,52,24.00
2016,08,11,10,53,23.90
2016,08,11,10,54,23.90
2016,08,11,10,55,23.90
2016,08,11,10,56,23.80
2016,08,11,10,57,23.70
2016,08,11,10,58,23.70
2016,08,11,10,59,23.60
2016,08,11,11,00,23.60
2016,08,11,11,01,23.60
2016,08,11,11,02,23.60
2016,08,11,11,03,23.60
2016,08,11,11,04,23.40
2016,08,11,11,05,23.30
2016,08,11,11,06,23.20
2016,08,11,11,07,23.20
2016,08,11,11,08,23.30
2016,08,11,11,09,23.40
2016,08,11,11,10,23.50
2016,08,11,11,11,23.60
2016,08,11,11,12,23.70
2016,08,11,11,13,23.70
2016,08,11,11,14,23.80
2016,08,11,11,15,23.80
2016,08,11,11,16,23.90
2016,08,11,11,17,24.00
2016,08,11,11,18,24.00
2016,08,11,11,19,23.90
2016,08,11,11,20,23.90
2016,08,11,11,21,23.80
2016,08,11,11,22,23.80
2016,08,11,11,23,23.80
2016,08,11,11,24,23.80
2016,08,11,11,25,23.80
2016,08,11,11,26,23.80
2016,08,11,11,27,23.80
2016,08,11,11,28,23.90
2016,08,11,11,29,24.00
2016,08,11,11,30,24.10
2016,08,11,11,31,24.20
2016,08,11,11,32,24.20
2016,08,11,11,33,24.20
2016,08,11,11,34,24.20
2016,08,11,11,35,24.10
2016,08,11,11,36,24.10
2016,08,11,11,37,23.90
2016,08,11,11,38,23.80
2016,08,11,11,39,23.80
2016,08,11,11,40,23.90
2016,08,11,11,41,24.00
2016,08,11,11,42,24.10
2016,08,11,11,43,24.10
2016,08,11,11,44,24.20
2016,08,11,11,45,24.20
2016,08,11,11,46,24.10
2016,08,11,11,47,24.10
2016,08,11,11,48,24.10
2016,08,11,11,49,24.10
2016,08,11,11,50,24.20
2016,08,11,11,51,24.30
2016,08,11,11,52,24.30
2016,08,11,11,53,24.40
2016,08,11,11,54,24.30
2016,08,11,11,55,24.30
2016,08,11,11,56,24.40
2016,08,11,11,57,24.30
2016,08,11,11,58,24.30
2016,08,11,11,59,24.30
2016,08,11,12,00,24.30
2016,08,11,12,01,24.30
2016,08,11,12,02,24.40
2016,08,11,12,03,24.40
2016,08,11,12,04,24.40
2016,08,11,12,05,24.30
2016,08,11,12,06,24.30
2016,08,11,12,07,24.30
2016,08,11,12,08,24.30
2016,08,11,12,09,24.20
2016,08,11,12,10,24.10
2016,08,11,12,11,24.00
2016,08,11,12,12,23.90
2016,08,11,12,13,24.00
2016,08,11,12,14,24.00
2016,08,11,12,15,24.10
2016,08,11,12,16,24.10
2016,08,11,12,17,24.10
2016,08,11,12,18,24.20
2016,08,11,12,19,24.30
2016,08,11,12,20,24.30
2016,08,11,12,21,24.30
2016,08,11,12,22,24.30
2016,08,11,12,23,24.30
2016,08,11,12,24,24.30
2016,08,11,12,25,24.30
2016,08,11,12,26,24.30
2016,08,11,12,27,24.30
2016,08,11,12,28,24.40
2016,08,11,12,29,24.30
2016,08,11,12,30,24.30
2016,08,11,12,31,24.30
2016,08,11,12,32,24.30
2016,08,11,12,33,24.40
2016,08,11,12,34,24.50
2016,08,11,12,35,24.50
2016,08,11,12,36,24.60
2016,08,11,12,37,24.60
2016,08,11,12,38,24.60
2016,08,11,12,39,24.50
2016,08,11,12,40,24.50
2016,08,11,12,41,24.50
2016,08,11,12,42,24.50
2016,08,11,12,43,24.60
2016,08,11,12,44,24.50
2016,08,11,12,45,24.60
2016,08,11,12,46,24.50
2016,08,11,12,47,24.40
2016,08,11,12,48,24.40
2016,08,11,12,49,24.40
2016,08,11,12,50,24.40
2016,08,11,12,51,24.40
2016,08,11,12,52,24.50
2016,08,11,12,53,24.60
2016,08,11,12,54,24.50
2016,08,11,12,55,24.50
2016,08,11,12,56,24.50
2016,08,11,12,57,24.50
2016,08,11,12,58,24.50
2016,08,11,12,59,24.70
2016,08,11,13,00,24.80
2016,08,11,13,01,24.90
2016,08,11,13,02,24.90
2016,08,11,13,03,25.00
2016,08,11,13,04,25.10
2016,08,11,13,05,25.20
2016,08,11,13,06,25.20
2016,08,11,13,07,25.20
2016,08,11,13,08,25.30
2016,08,11,13,09,25.40
2016,08,11,13,10,25.40
2016,08,11,13,11,25.40
2016,08,11,13,12,25.20
2016,08,11,13,13,25.20
2016,08,11,13,14,25.10
2016,08,11,13,15,25.10
2016,08,11,13,16,25.20
2016,08,11,13,17,25.30
2016,08,11,13,18,25.30
2016,08,11,13,19,25.20
2016,08,11,13,20,25.10
2016,08,11,13,21,25.10
2016,08,11,13,22,25.10
2016,08,11,13,23,25.10
2016,08,11,13,24,25.10
2016,08,11,13,25,25.20
2016,08,11,13,26,25.40
2016,08,11,13,27,25.40
2016,08,11,13,28,25.40
2016,08,11,13,29,25.40
2016,08,11,13,30,25.40
2016,08,11,13,31,25.40
2016,08,11,13,32,25.50
2016,08,11,13,33,25.50
2016,08,11,13,34,25.60
2016,08,11,13,35,25.60
2016,08,11,13,36,25.60
2016,08,11,13,37,25.60
2016,08,11,13,38,25.60
2016,08,11,13,39,25.50
2016,08,11,13,40,25.50
2016,08,11,13,41,25.50
2016,08,11,13,42,25.50
2016,08,11,13,43,25.50
2016,08,11,13,44,25.60
2016,08,11,13,45,25.60
2016,08,11,13,46,25.60
2016,08,11,13,47,25.60
2016,08,11,13,48,25.60
2016,08,11,13,49,25.60
2016,08,11,13,50,25.70
2016,08,11,13,51,25.70
2016,08,11,13,52,25.80
2016,08,11,13,53,25.90
2016,08,11,13,54,25.90
2016,08,11,13,55,25.90
2016,08,11,13,56,25.90
2016,08,11,13,57,25.90
2016,08,11,13,58,25.90
2016,08,11,13,59,25.90
2016,08,11,14,00,26.00
2016,08,11,14,01,26.10
2016,08,11,14,02,26.30
2016,08,11,14,03,26.30
2016,08,11,14,04,26.30
2016,08,11,14,05,26.30
2016,08,11,14,06,26.20
2016,08,11,14,07,26.00
2016,08,11,14,08,25.90
2016,08,11,14,09,25.80
2016,08,11,14,10,25.80
2016,08,11,14,11,25.80
2016,08,11,14,12,25.70
2016,08,11,14,13,25.70
2016,08,11,14,14,25.70
2016,08,11,14,15,25.70
2016,08,11,14,16,25.70
2016,08,11,14,17,25.70
2016,08,11,14,18,25.90
2016,08,11,14,19,26.00
2016,08,11,14,20,26.20
2016,08,11,14,21,26.20
2016,08,11,14,22,26.30
2016,08,11,14,23,26.40
2016,08,11,14,24,26.50
2016,08,11,14,25,26.50
2016,08,11,14,26,26.50
2016,08,11,14,27,26.40
2016,08,11,14,28,26.40
2016,08,11,14,29,26.40
2016,08,11,14,30,26.40
2016,08,11,14,31,26.40
2016,08,11,14,32,26.40
2016,08,11,14,33,26.50
2016,08,11,14,34,26.60
2016,08,11,14,35,26.70
2016,08,11,14,36,26.90
2016,08,11,14,37,27.00
2016,08,11,14,38,27.10
2016,08,11,14,39,27.10
2016,08,11,14,40,27.10
2016,08,11,14,41,27.20
2016,08,11,14,42,27.20
2016,08,11,14,43,27.20
2016,08,11,14,44,27.10
2016,08,11,14,45,27.10
2016,08,11,14,46,27.20
2016,08,11,14,47,27.20
2016,08,11,14,48,27.30
2016,08,11,14,49,27.30
2016,08,11,14,50,27.40
2016,08,11,14,51,27.40
2016,08,11,14,52,27.40
2016,08,11,14,53,27.40
2016,08,11,14,54,27.40
2016,08,11,14,55,27.30
2016,08,11,14,56,27.10
2016,08,11,14,57,27.10
2016,08,11,14,58,27.10
2016,08,11,14,59,27.10
2016,08,11,15,00,27.10
2016,08,11,15,01,27.10
2016,08,11,15,02,27.10
2016,08,11,15,03,27.20
2016,08,11,15,04,27.30
2016,08,11,15,05,27.50
2016,08,11,15,06,27.60
2016,08,11,15,07,27.60
2016,08,11,15,08,27.60
2016,08,11,15,09,27.50
2016,08,11,15,10,27.50
2016,08,11,15,11,27.40
2016,08,11,15,12,27.30
2016,08,11,15,13,27.30
2016,08,11,15,14,27.40
2016,08,11,15,15,27.50
2016,08,11,15,16,27.50
2016,08,11,15,17,27.50
2016,08,11,15,18,27.40
2016,08,11,15,19,27.40
2016,08,11,15,20,27.40
2016,08,11,15,21,27.50
2016,08,11,15,22,27.60
2016,08,11,15,23,27.70
2016,08,11,15,24,27.60
2016,08,11,15,25,27.60
2016,08,11,15,26,27.60
2016,08,11,15,27,27.60
2016,08,11,15,28,27.50
2016,08,11,15,29,27.40
2016,08,11,15,30,27.40
2016,08,11,15,31,27.50
2016,08,11,15,32,27.50
2016,08,11,15,33,27.50
2016,08,11,15,34,27.40
2016,08,11,15,35,27.40
2016,08,11,15,36,27.40
2016,08,11,15,37,27.40
2016,08,11,15,38,27.40
2016,08,11,15,39,27.40
2016,08,11,15,40,27.40
2016,08,11,15,41,27.40
2016,08,11,15,42,27.50
2016,08,11,15,43,27.60
2016,08,11,15,44,27.70
2016,08,11,15,45,27.70
2016,08,11,15,46,27.70
2016,08,11,15,47,27.70
2016,08,11,15,48,27.70
2016,08,11,15,49,27.70
2016,08,11,15,50,27.70
2016,08,11,15,51,27.70
2016,08,11,15,52,27.80
2016,08,11,15,53,27.80
2016,08,11,15,54,27.80
2016,08,11,15,55,27.80
2016,08,11,15,56,27.80
2016,08,11,15,57,27.80
2016,08,11,15,58,27.80
2016,08,11,15,59,27.80
2016,08,11,16,00,27.80
2016,08,11,16,01,27.80
2016,08,11,16,02,27.80
2016,08,11,16,03,27.70
2016,08,11,16,04,27.70
2016,08,11,16,05,27.60
2016,08,11,16,06,27.60
2016,08,11,16,07,27.60
2016,08,11,16,08,27.60
2016,08,11,16,09,27.50
2016,08,11,16,10,27.50
2016,08,11,16,11,27.50
2016,08,11,16,12,27.50
2016,08,11,16,13,27.50
2016,08,11,16,14,27.60
2016,08,11,16,15,27.60
2016,08,11,16,16,27.60
2016,08,11,16,17,27.70
2016,08,11,16,18,27.70
2016,08,11,16,19,27.70
2016,08,11,16,20,27.60
2016,08,11,16,21,27.60
2016,08,11,16,22,27.50
2016,08,11,16,23,27.50
2016,08,11,16,24,27.50
2016,08,11,16,25,27.60
2016,08,11,16,26,27.60
2016,08,11,16,27,27.60
2016,08,11,16,28,27.60
2016,08,11,16,29,27.60
2016,08,11,16,30,27.60
2016,08,11,16,31,27.50
2016,08,11,16,32,27.50
2016,08,11,16,33,27.50
2016,08,11,16,34,27.60
2016,08,11,16,35,27.60
2016,08,11,16,36,27.70
2016,08,11,16,37,27.80
2016,08,11,16,38,27.80
2016,08,11,16,39,27.80
2016,08,11,16,40,27.90
2016,08,11,16,41,27.90
2016,08,11,16,42,27.90
2016,08,11,16,43,27.80
2016,08,11,16,44,27.80
2016,08,11,16,45,27.70
2016,08,11,16,46,27.60
2016,08,11,16,47,27.50
2016,08,11,16,48,27.50
2016,08,11,16,49,27.50
2016,08,11,16,50,27.50
2016,08,11,16,51,27.60
2016,08,11,16,52,27.70
2016,08,11,16,53,27.80
2016,08,11,16,54,27.90
2016,08,11,16,55,28.00
2016,08,11,16,56,28.00
2016,08,11,16,57,28.00
2016,08,11,16,58,28.00
2016,08,11,16,59,28.00
2016,08,11,17,00,28.00
2016,08,11,17,01,27.90
2016,08,11,17,02,27.90
2016,08,11,17,03,27.90
2016,08,11,17,04,28.00
2016,08,11,17,05,28.00
2016,08,11,17,06,27.90
2016,08,11,17,07,27.90
2016,08,11,17,08,27.90
2016,08,11,17,09,28.00
2016,08,11,17,10,27.90
2016,08,11,17,11,27.90
2016,08,11,17,12,27.90
2016,08,11,17,13,27.90
2016,08,11,17,14,27.80
2016,08,11,17,15,27.80
2016,08,11,17,16,27.80
2016,08,11,17,17,27.70
2016,08,11,17,18,27.70
2016,08,11,17,19,27.60